Lid_Strength_Index
1 0 0 0 -0 -0 -0 -0 0 1 1 1 1 1 1 1 1 1 1 1 1 1 1 1 1 1 4 8 9 5 2 4 5 5 7 8 10 11 13 12 11 12 11 9 9 10 10
1 0 0 -0 -0 -0 -0 -0 0 1 1 1 1 1 1 2 2 2 2 2 1 1 1 2 1 2 6 12 5 5 6 6 6 6 8 8 9 9 11 12 13 11 10 10 10 10 10
0 0 -0 -0 -0 -1 -0 -0 0 1 1 1 1 2 2 2 2 2 2 2 2 2 2 2 2 4 8 9 5 6 6 7 6 6 7 7 7 9 10 12 10 10 13 12 11 10 11
-0 -0 -0 -0 -0 -0 -0 0 0 1 1 2 2 2 3 3 3 3 3 3 2 2 3 3 3 6 10 5 6 6 6 7 6 6 6 6 7 8 10 10 11 14 14 17 13 11 11
-0 -0 -0 -0 -1 -0 -0 0 0 1 1 2 2 3 3 3 3 4 4 3 2 3 3 3 7 9 11 5 8 7 7 8 7 7 7 6 8 10 11 14 16 14 19 17 15 11 11
-1 -1 -1 -1 -1 -1 -0 0 0 1 1 2 2 3 3 3 3 4 3 3 3 5 4 7 7 10 10 10 8 8 7 7 9 9 9 9 11 14 14 16 20 18 18 17 18 14 13
-2 -2 -2 -1 -1 -0 -1 0 1 1 1 2 2 3 3 3 3 4 5 8 9 9 9 10 10 11 10 8 7 8 7 9 9 11 14 12 16 17 15 15 14 15 17 18 16 13 14
-1 -0 -0 0 0 0 -0 1 1 1 1 2 2 3 3 4 4 4 7 10 10 10 12 9 10 10 9 9 11 9 8 11 12 15 13 15 17 13 12 13 15 16 18 18 15 13 15
-1 -1 -1 -1 -1 -1 -0 0 1 1 1 2 2 3 4 4 4 6 8 9 6 8 13 10 11 11 10 9 12 11 10 11 14 15 15 17 15 12 13 14 15 16 17 17 17 15 15
-0 -0 0 0 0 0 1 1 1 1 2 2 2 3 4 5 6 7 9 6 6 7 15 13 12 10 9 9 12 8 8 12 13 15 15 15 13 14 15 15 14 18 14 14 15 18 21
2 2 0 0 0 0 1 1 1 1 2 2 2 3 4 5 8 8 7 6 7 9 20 13 12 8 9 11 11 10 8 10 14 14 15 15 15 15 15 14 14 16 13 14 15 18 20
3 2 2 2 2 2 1 1 1 1 2 2 2 2 4 6 7 7 7 7 9 15 21 15 11 12 12 11 11 10 10 10 11 13 14 15 12 13 14 12 12 12 14 15 17 18 23
3 3 3 2 2 2 2 2 2 2 2 2 2 3 5 7 7 7 7 10 13 17 11 13 13 12 12 12 11 12 12 13 14 17 17 14 14 12 11 14 12 13 17 22 22 24 22
4 3 3 3 3 2 2 2 2 2 3 2 2 4 6 7 6 7 8 10 17 13 13 12 12 12 13 11 12 12 14 15 12 13 17 19 19 13 11 13 14 15 16 21 25 23 21
5 4 4 4 4 3 2 2 2 2 3 4 5 7 7 7 6 7 9 15 14 12 10 11 11 13 13 12 13 14 14 14 13 13 16 18 18 12 11 11 12 15 17 14 18 19 22
5 5 5 5 4 4 3 3 2 3 4 4 7 8 8 6 6 7 11 13 12 9 10 11 14 11 14 13 13 14 14 13 13 12 12 15 18 13 12 11 11 13 12 18 18 24 23
5 5 5 5 5 4 4 3 3 3 4 5 7 10 8 6 7 10 13 13 11 8 8 10 11 12 12 13 12 12 12 11 11 11 11 13 16 16 13 14 15 14 16 15 16 18 23
5 5 5 4 4 5 4 4 3 3 4 5 8 11 8 7 12 12 14 12 10 9 8 10 10 10 11 11 12 12 13 10 9 10 12 11 14 18 16 12 12 13 15 15 20 20 19
5 5 5 4 4 4 5 5 4 3 4 7 10 12 8 9 15 15 13 12 11 11 10 11 11 9 9 11 14 11 11 10 10 11 11 12 15 20 17 15 14 15 14 13 14 16 17
5 5 5 4 4 4 5 5 4 4 3 6 11 15 12 11 12 13 14 13 13 10 11 10 10 9 10 11 10 12 11 9 10 10 8 9 14 16 18 17 15 16 15 14 14 18 16
5 5 5 4 4 4 4 4 4 3 2 6 9 13 11 15 14 12 12 12 13 12 10 10 11 10 11 13 12 13 11 10 9 8 9 10 16 14 14 13 13 14 14 14 15 14 16
4 5 5 4 4 3 3 4 4 2 2 6 9 11 9 11 10 12 12 13 12 10 11 11 11 10 10 12 11 12 11 11 12 11 11 11 16 14 16 13 13 15 14 13 13 12 13
3 3 3 3 3 3 2 2 2 1 1 5 6 7 9 11 11 12 13 12 11 10 9 8 9 10 11 10 8 8 8 8 10 11 12 12 13 15 17 15 15 19 15 14 13 11 11
2 2 3 2 -0 -0 1 2 2 1 1 3 5 6 9 14 12 12 11 11 10 10 11 9 8 10 9 7 8 9 10 10 10 11 10 12 12 13 16 17 22 16 14 12 12 11 11
1 1 1 2 1 -0 -1 -1 0 1 1 3 4 5 8 11 11 11 11 11 10 9 10 10 9 9 8 10 13 14 15 14 14 12 11 10 12 15 17 18 16 14 14 15 15 15 15
1 1 1 1 0 -1 -1 -1 -1 -0 0 3 4 3 5 8 11 8 10 10 12 12 12 11 10 10 9 12 13 16 18 17 17 17 13 11 11 13 15 18 20 17 15 14 13 18 15
1 1 1 1 0 -0 -1 -1 -1 -0 0 2 4 2 5 9 8 9 10 10 9 11 12 12 12 12 10 13 14 15 16 13 17 18 18 14 13 15 15 16 15 15 15 14 19 18 16
-0 0 1 1 0 1 0 -0 0 -0 0 2 5 2 4 7 8 8 7 8 9 9 12 11 12 12 12 13 13 14 14 15 16 15 16 16 16 17 15 16 18 14 15 16 16 16 15
-1 -0 -0 -0 -1 -0 0 0 0 -0 -0 0 5 4 2 6 9 8 9 9 8 6 7 10 10 11 11 12 13 13 13 15 16 18 14 16 14 15 14 15 14 14 14 14 14 15 14